Location: Lac Lasalle
(46.0398°N, 74.1576°W)
Time: 17:01:59
(UTC-04:00)

ISS - Pass Details

Date: 25 March 2019
Orbit: 408 x 410 km, 51.6° (Epoch: 22 April)

Event Time Altitude Azimuth Distance (km) Brightness Sun altitude
Rises 21:25:10 0° 272° (W) 2,334 1.1 -22.3°
Reaches altitude 10° 21:27:22 10° 282° (WNW) 1,473 0.0 -22.6°
Enters shadow 21:30:24 33° 349° (NNW) 705 -2.3 -23.1°
